TIME,DELAY(SENSOR),PRES,OXYGEN,RAWTEMP,T(OPTODE),TCPHASE,FLUOR,BETA(BETA700),BETA(BETA412),BETA(BETA440),CDOM,C(CSC),ED(ED412.40),ED(ED444.00),ED(ED489.70),ED(ED554.30),LU(LU411.80),LU(LU443.40),LU(LU489.60),LU(LU554.10),COMP,TILTX,TILTY,CHECK
1380254963,5808,828.3599853515625000,43.9903602600097660,656.3020019531250000,4.7496409416198730,54.3583488464355500,53,100,85,79,78,15231,2147754294,2147421220,2148014116,2147870838,2147638208,2147051876,2148260672,2147195382,271,4,13,16559
1380258559,5810,905.2800292968750000,49.0884895324707000,666.7750854492188000,4.4046688079833980,53.7583007812500000,53,100,86,77,79,15233,2147755776,2147425947,2148012324,2147873590,2147637952,2147048877,2148259968,2147197083,1672,4,13,34045
1380262159,5809,914.8300170898438000,48.7028083801269500,669.3237915039062000,4.3205318450927730,53.8380393981933600,53,100,86,78,79,15230,2147756525,2147423378,2148011849,2147873472,2147641188,2147053915,2148259081,2147198957,3027,3,13,52171
1380265759,5809,943.4699707031250000,50.4513206481933600,672.6619262695312000,4.2102241516113280,53.6445007324218750,52,97,84,77,79,15229,2147755492,2147421248,2148014948,2147873526,2147640557,2147051986,2148261257,2147198107,2888,4,13,49001
1380269359,5808,948.2000122070312000,50.1119384765625000,672.1279296875000000,4.2278800010681150,53.6819801330566400,53,98,110,78,79,15231,2147754148,2147422006,2148012480,2147872758,2147640557,2147051218,2148257590,2147198253,3175,4,13,54637
1380272959,5810,954.7800292968750000,50.1873588562011700,672.4769287109375000,4.2163391113281250,53.6744308471679700,52,98,84,79,79,15228,2147756370,2147424228,2148011766,2147874459,2147641609,2147051574,2148256923,2147196800,96,4,13,1636
1380276559,5812,985.4600219726562000,50.8049888610839840,674.5969848632812000,4.1462211608886720,53.6193084716796900,53,98,86,78,78,15227,2147760429,2147423716,2148013686,2147870802,2147640155,2147050962,2148260818,2147198436,117,4,13,34931
1380280159,5808,988.9799804687500000,50.4195098876953100,675.2584228515625000,4.1243381500244140,53.6794509887695300,53,99,82,79,78,15226,2147760320,2147426185,2148012736,2147874486,2147638957,2147050185,2148259190,2147198025,176,4,13,18221
1380283759,5806,997.8300170898438000,50.8779792785644500,674.1779174804688000,4.1600861549377440,53.6017189025878900,52,99,82,79,79,15226,2147759460,2147423506,2148016320,2147876562,2147642578,2147055926,2148261604,2147194157,3044,4,13,29947
1380287359,5807,1000.4000244140625000,50.6226692199707000,673.2894897460938000,4.1894721984863280,53.6291389465332000,52,100,95,79,78,15224,2147755264,2147424896,2148011200,2147870912,2147640676,2147052470,2148264576,2147197933,92,4,13,57043
1380290959,5808,992.3499755859375000,49.9121894836425800,673.2052001953125000,4.1922588348388670,53.7219200134277340,52,99,86,77,78,15227,2147755163,2147423497,2148015268,2147871040,2147636598,2147055826,2148259209,2147196434,3506,4,13,1161
1380294559,5810,995.0100097656250000,50.3694610595703100,674.6511840820312000,4.1444277763366700,53.6756515502929700,53,96,89,78,78,15223,2147751597,2147425060,2148013056,2147875410,2147640192,2147057481,2148263872,2147197092,3386,4,13,50586
1380298159,5808,1004.0300292968750000,49.9322891235351560,672.7116699218750000,4.2085800170898440,53.7119216918945300,53,97,87,78,79,15222,2147757549,2147421942,2148011318,2147876461,2147639945,2147053485,2148257728,2147195995,3399,4,13,47432
1380301759,5810,998.4400024414062000,49.6672897338867200,673.1790161132812000,4.1931290626525880,53.7538108825683600,53,99,83,79,79,15223,2147755958,2147423405,2148014601,2147875748,2147641600,2147055122,2148262080,2147199305,70,4,13,51497
1380305359,5811,996.5700073242188000,50.3578491210937500,674.8455810546875000,4.1379947662353520,53.6843605041503900,53,98,83,78,79,15219,2147756763,2147422372,2148016576,2147873700,2147637915,2147054427,2148260507,2147197860,206,4,13,61786
1380308959,5809,985.8599853515625000,50.5219192504882800,676.8646850585938000,4.0711631774902340,53.6836814880371100,53,99,84,78,79,15219,2147758528,2147426825,2148016868,2147874048,2147641517,2147050669,2148259620,2147195556,101,4,13,42439
1380312559,5812,989.2500000000000000,50.8111495971679700,677.1738891601562000,4.0609250068664550,53.6517715454101560,53,98,84,77,79,15220,2147754907,2147428955,2148012672,2147875913,2147639981,2147054336,2148266313,2147198902,5,4,13,63275
1380316159,5810,993.6599731445312000,50.5379104614257800,676.1879882812500000,4.0935649871826170,53.6716995239257800,52,97,81,77,79,15221,2147756013,2147426166,2148014656,2147871424,2147642066,2147056027,2148263817,2147197906,100,4,13,5235
1380319759,5809,995.7500000000000000,50.2934112548828100,675.8145751953125000,4.1059279441833500,53.7004318237304700,51,97,85,78,78,15218,2147756297,2147425581,2148014820,2147875346,2147638171,2147054985,2148262720,2147197193,14,4,13,10258
1380323359,5808,997.7999877929688000,50.3975906372070300,675.9260864257812000,4.1022357940673830,53.6863784790039060,52,99,84,78,79,15217,2147754249,2147421750,2148009344,2147871789,2147643456,2147053796,2148263076,2147196160,122,4,13,35209
1380326959,5807,995.7000122070312000,51.1765289306640600,677.1027221679688000,4.0632801055908200,53.5981216430664060,52,98,87,78,79,15206,2147755373,2147425828,2148013677,2147874587,2147640658,2147056658,2148263277,2147201142,3370,4,13,16480
1380330559,5813,999.5999755859375000,51.0564193725585940,676.8264770507812000,4.0724258422851560,53.6129112243652340,53,103,86,79,79,15217,2147759506,2147424822,2148015981,2147873380,2147640438,2147051501,2148260416,2147195227,42,4,13,57571
1380334159,5808,1000.7500000000000000,50.3918991088867200,676.2197265625000000,4.0925159454345700,53.6945915222168000,53,99,86,77,78,15208,2147759625,2147429083,2148014656,2147874139,2147640621,2147049152,2148261376,2147194816,3586,4,13,12776
1380337759,5809,994.8099975585938000,50.3312187194824200,676.1287231445312000,4.0955309867858890,53.7045707702636700,52,98,85,79,79,15199,2147753773,2147425682,2148013229,2147873380,2147640374,2147056740,2148259172,2147197421,3500,3,13,28882
1380341359,5810,1002.3099975585938000,50.6026802062988300,675.9821166992188000,4.1003842353820800,53.6635513305664060,52,99,86,79,79,15196,2147758070,2147424877,2148011794,2147873481,2147638354,2147053312,2148259072,2147197595,3434,4,13,36707
1380344959,5809,998.2899780273438000,50.4438591003418000,676.2725219726562000,4.0907688140869140,53.6900596618652340,53,98,84,78,79,15194,2147757851,2147424685,2148014509,2147876864,2147639862,2147055396,2148258806,2147202386,3560,4,13,51747
1380348559,5812,999.9199829101562000,51.0040893554687500,676.5864257812500000,4.0803780555725100,53.6186904907226560,52,98,89,78,79,15193,2147756022,2147422473,2148015698,2147875840,2147639076,2147055414,2148256182,2147201499,3193,4,13,64979
1380352159,5809,1004.7000122070312000,50.8800697326660160,675.8411254882812000,4.1050491333007810,53.6259803771972660,53,104,89,78,78,15194,2147757229,2147427766,2148012836,2147872749,2147639332,2147055661,2148258688,2147200009,52,4,13,63960
1380355759,5807,1001.5100097656250000,50.4489097595214840,675.8322753906250000,4.1053390502929690,53.6800193786621100,52,100,86,79,79,15192,2147756763,2147425746,2148011638,2147875026,2147639378,2147057188,2148261001,2147197229,159,4,13,53264
1380359359,5809,997.3900146484375000,50.1366195678710940,675.8186035156250000,4.1057949066162110,53.7247695922851560,52,100,85,77,79,15190,2147755584,2147427803,2148015460,2147873024,2147639195,2147053147,2148256201,2147198656,87,4,13,47448
1380362959,5812,1001.9299926757812000,50.7880897521972660,676.5156860351562000,4.0827178955078125,53.6470909118652340,53,100,83,76,79,15189,2147759277,2147425252,2148012992,2147876150,2147641161,2147059547,2148259666,2147195867,93,4,13,65286
1380366559,5809,999.6900024414062000,49.8995399475097660,675.8544921875000000,4.1046071052551270,53.7575988769531250,51,97,86,79,78,15187,2147755986,2147423497,2148014902,2147874633,2147637778,2147054637,2148261686,2147198820,3469,4,13,64722
1380370159,5808,990.5100097656250000,50.3274688720703100,676.1157836914062000,4.0959568023681640,53.7009391784668000,52,100,84,79,79,15190,2147754706,2147426413,2148014674,2147872969,2147641664,2147056832,2148257545,2147199113,90,4,13,61204
1380373759,5809,997.5499877929688000,50.3792991638183600,677.1586303710938000,4.0614318847656250,53.7058792114257800,52,96,85,79,79,15186,2147754688,2147425728,2148014345,2147875876,2147641280,2147052928,2148261330,2147200219,81,4,13,32847
1380377359,5810,1004.2100219726562000,50.9186210632324200,676.6450195312500000,4.0784358978271480,53.6278915405273440,52,98,85,78,79,15189,2147756754,2147425746,2148015972,2147872905,2147639972,2147053083,2148261924,2147199734,3563,4,13,52114
1380380959,5807,1004.1300048828125000,50.0961608886718750,675.8712768554688000,4.1040520668029785,53.7304611206054700,53,97,87,77,78,15185,2147757229,2147426633,2148014372,2147872530,2147643072,2147060626,2148257572,2147196928,3419,4,13,37105
1380384559,5809,1008.5000000000000000,50.3652801513671900,674.8657226562500000,4.1373329162597660,53.6799087524414060,52,97,86,79,78,15186,2147755547,2147425828,2148011337,2147872832,2147640832,2147055049,2148265243,2147196306,3335,4,13,49445
1380388159,5810,1002.7100219726562000,49.8745117187500000,673.9265136718750000,4.1684041023254395,53.7388381958007800,53,97,81,78,79,15188,2147752594,2147423177,2148016210,2147874258,2147640155,2147051739,2148257974,2147198070,663,4,13,55020
1380391759,5811,1001.5999755859375000,50.2543296813964840,675.9172973632812000,4.1025280952453610,53.7075500488281250,53,97,87,79,78,15187,2147757805,2147425362,2148015277,2147873270,2147639826,2147049188,2148262089,2147200804,3543,4,13,39895
1380395359,5805,1004.3099975585938000,50.8847007751464840,676.8383178710938000,4.0720372200012210,53.6347389221191400,52,98,84,79,79,15186,2147755401,2147426285,2148016009,2147870939,2147640530,2147051510,2148259858,2147195346,2920,4,13,35962
1380398155,5808,1002.1500244140625000,50.8325614929199200,676.8563232421875000,4.0714402198791500,53.6433601379394500,52,96,85,78,79,15259,2147758912,2147424923,2148015177,2147873307,2147641627,2147054354,2148263149,2147199387,3026,4,13,61890
